| time (UTC) | temp F | wind direction | speed MPH | gust MPH | rain 1hr in | rain 24hr in | rain mn in | humidity % | barometer mb |
| 20260901104848 | 65 | 0 | 0.0 | 3.0 | 0.00 | 0.00 | 0.00 | 85 | 1008.5 |
| 20260901104348 | 65 | 209 | 1.0 | 3.0 | 0.00 | 0.00 | 0.00 | 85 | 1008.4 |
| 20260901103348 | 65 | 286 | 1.0 | 3.0 | 0.00 | 0.00 | 0.00 | 83 | 1008.5 |
| 20260901102349 | 65 | 202 | 1.0 | 3.0 | 0.00 | 0.00 | 0.00 | 84 | 1008.4 |
| 20260901101348 | 65 | 32 | 0.0 | 3.0 | 0.00 | 0.00 | 0.00 | 83 | 1008.5 |
| 20260901100851 | 65 | 159 | 1.0 | 3.0 | 0.00 | 0.00 | 0.00 | 82 | 1008.3 |
| 20260901100349 | 65 | 345 | 0.0 | 3.0 | 0.00 | 0.00 | 0.00 | 82 | 1008.2 |
| 20260901095849 | 65 | 292 | 1.0 | 4.0 | 0.00 | 0.00 | 0.00 | 81 | 1008.3 |
| 20260901095349 | 65 | 127 | 2.0 | 4.0 | 0.00 | 0.00 | 0.00 | 82 | 1008.2 |
| 20260901094838 | 65 | 0 | 1.0 | 3.0 | 0.00 | 0.00 | 0.00 | 83 | 1008.1 |
| 20260901094337 | 65 | 25 | 2.0 | 3.0 | 0.00 | 0.00 | 0.00 | 84 | 1008.1 |
| 20260901093836 | 65 | 0 | 1.0 | 3.0 | 0.00 | 0.00 | 0.00 | 83 | 1008.1 |
| 20260901092830 | 65 | 56 | 1.0 | 4.0 | 0.00 | 0.00 | 0.00 | 84 | 1008.1 |
| 20260901092329 | 65 | 28 | 1.0 | 3.0 | 0.00 | 0.00 | 0.00 | 83 | 1008.0 |
| 20260901091829 | 65 | 66 | 1.0 | 3.0 | 0.00 | 0.00 | 0.00 | 84 | 1008.1 |
| 20260901091302 | 65 | 27 | 2.0 | 4.0 | 0.00 | 0.00 | 0.00 | 81 | 1008.0 |
| 20260901090804 | 65 | 34 | 1.0 | 4.0 | 0.00 | 0.00 | 0.00 | 82 | 1008.0 |
| 20260901090303 | 65 | 292 | 1.0 | 4.0 | 0.00 | 0.00 | 0.00 | 82 | 1007.9 |
| 20260901085801 | 66 | 7 | 0.0 | 4.0 | 0.00 | 0.00 | 0.00 | 81 | 1008.0 |
| 20260901085306 | 66 | 104 | 2.0 | 3.0 | 0.00 | 0.00 | 0.00 | 81 | 1008.0 |
| 20260901084806 | 66 | 179 | 1.0 | 5.0 | 0.00 | 0.00 | 0.00 | 81 | 1008.0 |
| 20260901084305 | 66 | 0 | 2.0 | 5.0 | 0.00 | 0.00 | 0.00 | 85 | 1008.1 |
| 20260901083306 | 64 | 28 | 1.0 | 4.0 | 0.00 | 0.01 | 0.00 | 86 | 1008.0 |
| 20260901082806 | 64 | 285 | 1.0 | 4.0 | 0.00 | 0.01 | 0.00 | 86 | 1008.1 |
| 20260901082306 | 64 | 347 | 1.0 | 2.0 | 0.00 | 0.02 | 0.00 | 88 | 1008.0 |
| 20260901081802 | 64 | 49 | 0.0 | 2.0 | 0.00 | 0.03 | 0.00 | 88 | 1008.0 |
| 20260901081302 | 64 | 72 | 1.0 | 3.0 | 0.00 | 0.06 | 0.00 | 87 | 1008.0 |
| 20260901080749 | 64 | 32 | 0.0 | 3.0 | 0.00 | 0.09 | 0.00 | 86 | 1007.9 |
| 20260901080249 | 65 | 0 | 0.0 | 2.0 | 0.00 | 0.11 | 0.00 | 85 | 1007.9 |
| 20260901075750 | 65 | 34 | 1.0 | 3.0 | 0.00 | 0.13 | 0.00 | 87 | 1007.9 |
| 20260901075249 | 65 | 82 | 1.0 | 3.0 | 0.00 | 0.13 | 0.00 | 87 | 1007.9 |
| 20260901074747 | 65 | 49 | 0.0 | 1.0 | 0.00 | 0.13 | 0.00 | 89 | 1007.9 |
| 20260901074248 | 64 | 107 | 0.0 | 1.0 | 0.00 | 0.13 | 0.00 | 89 | 1007.9 |
| 20260901073748 | 63 | 37 | 0.0 | 2.0 | 0.00 | 0.15 | 0.00 | 91 | 1008.0 |
| 20260901073246 | 63 | 59 | 1.0 | 2.0 | 0.00 | 0.16 | 0.00 | 91 | 1007.9 |
| 20260901072746 | 63 | 16 | 1.0 | 2.0 | 0.00 | 0.17 | 0.00 | 91 | 1007.9 |
| 20260901072246 | 63 | 96 | 0.0 | 2.0 | 0.00 | 0.17 | 0.00 | 91 | 1007.8 |
| 20260901071747 | 62 | 209 | 0.0 | 2.0 | 0.00 | 0.18 | 0.00 | 91 | 1007.9 |
| 20260901071248 | 62 | 148 | 1.0 | 2.0 | 0.00 | 0.20 | 0.00 | 92 | 1007.8 |
| 20260901070748 | 62 | 78 | 1.0 | 4.0 | 0.00 | 0.21 | 0.00 | 92 | 1007.9 |
| 20260901065749 | 62 | 133 | 0.0 | 1.0 | 0.00 | 0.21 | 0.00 | 93 | 1008.0 |
| 20260901065250 | 62 | 21 | 0.0 | 1.0 | 0.00 | 0.22 | 0.00 | 93 | 1007.9 |
| 20260901064748 | 62 | 24 | 0.0 | 1.0 | 0.00 | 0.22 | 0.00 | 93 | 1007.9 |
| 20260901064247 | 61 | 24 | 0.0 | 3.0 | 0.00 | 0.22 | 0.00 | 93 | 1007.9 |
| 20260901063749 | 61 | 0 | 1.0 | 3.0 | 0.00 | 0.22 | 0.00 | 94 | 1007.9 |
| 20260901063250 | 61 | 55 | 0.0 | 3.0 | 0.00 | 0.23 | 0.00 | 94 | 1007.8 |
| 20260901062749 | 61 | 13 | 1.0 | 3.0 | 0.00 | 0.23 | 0.00 | 94 | 1007.8 |
| 20260901061748 | 61 | 204 | 0.0 | 2.0 | 0.00 | 0.23 | 0.00 | 95 | 1007.8 |
| 20260901061248 | 61 | 47 | 0.0 | 2.0 | 0.00 | 0.23 | 0.00 | 95 | 1007.7 |
| 20260901060748 | 61 | 47 | 0.0 | 2.0 | 0.00 | 0.23 | 0.00 | 96 | 1007.8 |
| 20260901060250 | 61 | 75 | 0.0 | 2.0 | 0.00 | 0.26 | 0.00 | 96 | 1007.7 |
| 20260901055751 | 60 | 21 | 0.0 | 2.0 | 0.00 | 0.28 | 0.00 | 96 | 1007.8 |
| 20260901055245 | 60 | 79 | 0.0 | 2.0 | 0.00 | 0.28 | 0.00 | 96 | 1007.9 |
| 20260901054244 | 60 | 71 | 0.0 | 1.0 | 0.00 | 0.30 | 0.00 | 96 | 1007.9 |
| 20260901053744 | 60 | 71 | 0.0 | 1.0 | 0.00 | 0.30 | 0.00 | 96 | 1007.9 |
| 20260901053248 | 60 | 78 | 0.0 | 2.0 | 0.00 | 0.31 | 0.00 | 96 | 1007.8 |
| 20260901052748 | 60 | 133 | 0.0 | 2.0 | 0.00 | 0.31 | 0.00 | 96 | 1007.8 |
| 20260901052248 | 60 | 31 | 0.0 | 1.0 | 0.00 | 0.31 | 0.00 | 96 | 1007.8 |
| 20260901051749 | 60 | 45 | 1.0 | 1.0 | 0.00 | 0.31 | 0.00 | 96 | 1007.9 |
| 20260901051248 | 60 | 238 | 0.0 | 1.0 | 0.00 | 0.31 | 0.00 | 96 | 1007.9 |
| 20260901050250 | 59 | 135 | 0.0 | 1.0 | 0.00 | 0.31 | 0.00 | 96 | 1007.7 |
| 20260901045749 | 59 | 166 | 0.0 | 1.0 | 0.00 | 0.31 | 0.00 | 96 | 1007.8 |
| 20260901045248 | 59 | 83 | 0.0 | 0.0 | 0.00 | 0.31 | 0.00 | 96 | 1007.8 |
| 20260901044748 | 59 | 83 | 0.0 | 0.0 | 0.00 | 0.31 | 0.00 | 96 | 1007.8 |
| 20260901044249 | 59 | 83 | 0.0 | 0.0 | 0.00 | 0.32 | 0.00 | 96 | 1007.8 |
| 20260901043748 | 59 | 69 | 0.0 | 0.0 | 0.00 | 0.33 | 0.00 | 96 | 1007.8 |
| 20260901043248 | 59 | 69 | 0.0 | 1.0 | 0.00 | 0.33 | 0.00 | 96 | 1007.8 |
| 20260901042752 | 59 | 69 | 0.0 | 1.0 | 0.00 | 0.34 | 0.00 | 96 | 1007.8 |
| 20260901041751 | 59 | 78 | 0.0 | 1.0 | 0.00 | 0.35 | 0.00 | 96 | 1007.8 |
| 20260901041248 | 59 | 79 | 0.0 | 1.0 | 0.00 | 0.35 | 0.00 | 96 | 1007.8 |
| 20260901040749 | 59 | 109 | 0.0 | 1.0 | 0.00 | 0.36 | 0.00 | 95 | 1007.8 |
| 20260901040248 | 59 | 79 | 0.0 | 0.0 | 0.00 | 0.37 | 0.00 | 95 | 1007.8 |
| 20260901035247 | 59 | 79 | 0.0 | 1.0 | 0.00 | 0.37 | 0.00 | 95 | 1007.8 |
| 20260901034747 | 58 | 79 | 0.0 | 1.0 | 0.00 | 0.37 | 0.00 | 95 | 1007.8 |
| 20260901034251 | 59 | 79 | 0.0 | 0.0 | 0.00 | 0.37 | 0.00 | 95 | 1007.8 |
| 20260901033748 | 58 | 79 | 0.0 | 1.0 | 0.00 | 0.37 | 0.00 | 95 | 1007.8 |
| 20260901033247 | 59 | 79 | 0.0 | 1.0 | 0.00 | 0.37 | 0.00 | 95 | 1007.8 |
| 20260901032748 | 59 | 97 | 0.0 | 1.0 | 0.00 | 0.37 | 0.00 | 95 | 1007.9 |
| 20260901032250 | 59 | 25 | 0.0 | 1.0 | 0.00 | 0.38 | 0.00 | 95 | 1007.8 |
| 20260901031747 | 58 | 180 | 0.0 | 0.0 | 0.00 | 0.38 | 0.00 | 95 | 1007.7 |
| 20260901031248 | 58 | 180 | 0.0 | 0.0 | 0.00 | 0.38 | 0.00 | 96 | 1007.8 |
| 20260901030748 | 58 | 180 | 0.0 | 3.0 | 0.00 | 0.38 | 0.00 | 96 | 1007.8 |
| 20260901030248 | 58 | 175 | 1.0 | 3.0 | 0.00 | 0.38 | 0.00 | 96 | 1007.8 |
| 20260901025749 | 58 | 120 | 0.0 | 2.0 | 0.00 | 0.38 | 0.00 | 96 | 1007.8 |
| 20260901025248 | 58 | 0 | 0.0 | 2.0 | 0.00 | 0.38 | 0.00 | 95 | 1007.8 |
| 20260901024747 | 58 | 27 | 0.0 | 1.0 | 0.00 | 0.38 | 0.00 | 95 | 1007.7 |
| 20260901023749 | 58 | 27 | 0.0 | 1.0 | 0.00 | 0.38 | 0.00 | 95 | 1007.8 |
| 20260901023249 | 58 | 27 | 0.0 | 2.0 | 0.00 | 0.38 | 0.00 | 95 | 1007.7 |
| 20260901022750 | 58 | 47 | 0.0 | 2.0 | 0.00 | 0.38 | 0.00 | 95 | 1007.7 |
| 20260901022248 | 58 | 296 | 0.0 | 0.0 | 0.00 | 0.38 | 0.00 | 95 | 1007.7 |
| 20260901021749 | 58 | 296 | 0.0 | 2.0 | 0.00 | 0.38 | 0.00 | 95 | 1007.6 |
| 20260901021248 | 58 | 296 | 0.0 | 2.0 | 0.00 | 0.38 | 0.00 | 95 | 1007.6 |
| 20260901020748 | 58 | 324 | 0.0 | 2.0 | 0.00 | 0.38 | 0.00 | 95 | 1007.7 |
| 20260901020247 | 58 | 144 | 0.0 | 2.0 | 0.00 | 0.38 | 0.00 | 95 | 1007.7 |
| 20260901015249 | 58 | 10 | 0.0 | 2.0 | 0.00 | 0.38 | 0.00 | 95 | 1007.7 |
| 20260901014732 | 58 | 45 | 1.0 | 2.0 | 0.00 | 0.38 | 0.00 | 95 | 1007.6 |
| 20260901013734 | 57 | 16 | 0.0 | 1.0 | 0.00 | 0.38 | 0.00 | 95 | 1007.6 |
| 20260901013232 | 57 | 16 | 0.0 | 1.0 | 0.00 | 0.38 | 0.00 | 95 | 1007.6 |
| 20260901012730 | 57 | 85 | 0.0 | 1.0 | 0.00 | 0.38 | 0.00 | 94 | 1007.6 |
| 20260901012230 | 57 | 85 | 0.0 | 1.0 | 0.00 | 0.38 | 0.00 | 94 | 1007.7 |
| 20260901011730 | 57 | 85 | 0.0 | 0.0 | 0.00 | 0.38 | 0.00 | 94 | 1007.7 |
| 20260901011229 | 57 | 86 | 0.0 | 0.0 | 0.00 | 0.38 | 0.00 | 94 | 1007.7 |
| 20260901010730 | 57 | 85 | 0.0 | 0.0 | 0.00 | 0.38 | 0.00 | 94 | 1007.7 |
| 20260901005732 | 57 | 86 | 0.0 | 0.0 | 0.00 | 0.38 | 0.00 | 94 | 1007.7 |
| 20260901005229 | 58 | 86 | 0.0 | 0.0 | 0.00 | 0.38 | 0.00 | 94 | 1007.7 |
| 20260901004729 | 58 | 85 | 0.0 | 0.0 | 0.00 | 0.38 | 0.00 | 94 | 1007.7 |
| 20260901004229 | 58 | 86 | 0.0 | 0.0 | 0.00 | 0.38 | 0.00 | 94 | 1007.7 |
| 20260901003729 | 58 | 85 | 0.0 | 0.0 | 0.00 | 0.38 | 0.00 | 94 | 1007.7 |
| 20260901003235 | 58 | 86 | 0.0 | 1.0 | 0.00 | 0.38 | 0.00 | 94 | 1007.7 |
| 20260901002731 | 58 | 86 | 0.0 | 1.0 | 0.00 | 0.38 | 0.00 | 94 | 1007.8 |
| 20260901001732 | 58 | 59 | 0.0 | 2.0 | 0.00 | 0.38 | 0.00 | 94 | 1007.9 |
| 20260901001228 | 58 | 61 | 0.0 | 0.0 | 0.00 | 0.38 | 0.00 | 94 | 1007.8 |
| 20260901000731 | 58 | 61 | 0.0 | 1.0 | 0.00 | 0.38 | 0.00 | 94 | 1007.9 |
| 20260901000230 | 58 | 61 | 0.0 | 1.0 | 0.00 | 0.38 | 0.00 | 94 | 1007.9 |
| 20260831235730 | 58 | 120 | 0.0 | 1.0 | 0.00 | 0.38 | 0.00 | 93 | 1007.9 |
| 20260831235229 | 58 | 117 | 0.0 | 1.0 | 0.00 | 0.38 | 0.00 | 93 | 1008.0 |
| 20260831234231 | 58 | 62 | 0.0 | 1.0 | 0.00 | 0.38 | 0.00 | 94 | 1008.0 |
| 20260831233729 | 58 | 44 | 0.0 | 1.0 | 0.00 | 0.38 | 0.00 | 94 | 1007.9 |
| 20260831232706 | 58 | 92 | 0.0 | 2.0 | 0.00 | 0.38 | 0.00 | 94 | 1008.0 |
| 20260831232206 | 59 | 99 | 0.0 | 2.0 | 0.00 | 0.38 | 0.00 | 94 | 1008.0 |
| 20260831231705 | 59 | 6 | 1.0 | 2.0 | 0.00 | 0.38 | 0.00 | 94 | 1008.0 |
| 20260831231205 | 59 | 8 | 0.0 | 2.0 | 0.00 | 0.38 | 0.00 | 94 | 1008.0 |
| 20260831230703 | 59 | 179 | 0.0 | 2.0 | 0.00 | 0.38 | 0.00 | 94 | 1008.0 |
| 20260831230204 | 59 | 55 | 1.0 | 2.0 | 0.00 | 0.38 | 0.00 | 94 | 1008.0 |
| 20260831225706 | 59 | 21 | 0.0 | 2.0 | 0.00 | 0.38 | 0.00 | 94 | 1008.1 |
| 20260831225201 | 59 | 113 | 0.0 | 2.0 | 0.00 | 0.38 | 0.00 | 93 | 1008.1 |
| 20260831224201 | 59 | 56 | 0.0 | 1.0 | 0.00 | 0.38 | 0.00 | 93 | 1008.1 |
| 20260831223703 | 59 | 130 | 0.0 | 1.0 | 0.00 | 0.38 | 0.00 | 93 | 1007.9 |
| 20260831223204 | 59 | 130 | 0.0 | 1.0 | 0.00 | 0.38 | 0.00 | 93 | 1008.0 |
| 20260831222701 | 59 | 130 | 0.0 | 1.0 | 0.00 | 0.38 | 0.00 | 93 | 1007.9 |
| 20260831222159 | 59 | 89 | 0.0 | 1.0 | 0.00 | 0.38 | 0.00 | 93 | 1008.0 |
| 20260831221654 | 59 | 89 | 0.0 | 1.0 | 0.00 | 0.38 | 0.00 | 93 | 1008.0 |
| 20260831221154 | 60 | 82 | 0.0 | 1.0 | 0.00 | 0.38 | 0.00 | 93 | 1008.0 |
| 20260831220148 | 60 | 0 | 0.0 | 1.0 | 0.00 | 0.38 | 0.00 | 93 | 1008.0 |
| 20260831215148 | 60 | 8 | 0.0 | 1.0 | 0.00 | 0.38 | 0.00 | 93 | 1008.1 |
| 20260831214646 | 60 | 76 | 0.0 | 0.0 | 0.00 | 0.38 | 0.00 | 93 | 1008.0 |
| 20260831214148 | 60 | 76 | 0.0 | 0.0 | 0.00 | 0.38 | 0.00 | 92 | 1007.9 |
| 20260831213647 | 60 | 76 | 0.0 | 1.0 | 0.00 | 0.39 | 0.00 | 92 | 1007.9 |
| 20260831213149 | 60 | 76 | 0.0 | 1.0 | 0.00 | 0.39 | 0.00 | 92 | 1007.8 |
| 20260831212649 | 60 | 76 | 0.0 | 1.0 | 0.00 | 0.39 | 0.00 | 92 | 1007.8 |
| 20260831212148 | 60 | 16 | 0.0 | 2.0 | 0.00 | 0.39 | 0.00 | 92 | 1007.9 |
| 20260831211649 | 60 | 1 | 0.0 | 2.0 | 0.00 | 0.39 | 0.00 | 92 | 1007.9 |
| 20260831210647 | 60 | 61 | 0.0 | 2.0 | 0.00 | 0.39 | 0.00 | 92 | 1007.8 |
| 20260831210149 | 60 | 0 | 0.0 | 2.0 | 0.00 | 0.39 | 0.00 | 92 | 1007.9 |
| 20260831205148 | 60 | 30 | 0.0 | 2.0 | 0.00 | 0.39 | 0.39 | 91 | 1007.8 |
| 20260831204648 | 60 | 0 | 1.0 | 3.0 | 0.00 | 0.39 | 0.39 | 91 | 1007.8 |
| 20260831204151 | 60 | 3 | 0.0 | 3.0 | 0.00 | 0.39 | 0.39 | 91 | 1007.9 |
| 20260831203646 | 60 | 90 | 1.0 | 3.0 | 0.00 | 0.39 | 0.39 | 92 | 1007.8 |
| 20260831203149 | 60 | 39 | 0.0 | 2.0 | 0.00 | 0.39 | 0.39 | 92 | 1007.8 |
| 20260831202648 | 60 | 0 | 1.0 | 2.0 | 0.00 | 0.39 | 0.39 | 92 | 1007.7 |
| 20260831202148 | 60 | 27 | 1.0 | 2.0 | 0.00 | 0.39 | 0.39 | 92 | 1007.7 |
| 20260831201647 | 60 | 265 | 1.0 | 2.0 | 0.00 | 0.39 | 0.39 | 92 | 1007.5 |
| 20260831201152 | 60 | 290 | 0.0 | 2.0 | 0.00 | 0.39 | 0.39 | 92 | 1007.5 |
| 20260831200646 | 60 | 28 | 0.0 | 2.0 | 0.00 | 0.39 | 0.39 | 92 | 1007.5 |
| 20260831200146 | 61 | 16 | 0.0 | 2.0 | 0.00 | 0.39 | 0.39 | 92 | 1007.5 |
| 20260831195645 | 61 | 302 | 0.0 | 2.0 | 0.00 | 0.39 | 0.39 | 92 | 1007.5 |
| 20260831195148 | 61 | 30 | 0.0 | 2.0 | 0.00 | 0.39 | 0.39 | 92 | 1007.4 |
| 20260831194645 | 61 | 216 | 1.0 | 2.0 | 0.00 | 0.39 | 0.39 | 92 | 1007.5 |
| 20260831192647 | 61 | 293 | 0.0 | 3.0 | 0.00 | 0.39 | 0.39 | 92 | 1007.3 |
| 20260831192147 | 61 | 305 | 0.0 | 3.0 | 0.00 | 0.39 | 0.39 | 92 | 1007.3 |
| 20260831191644 | 61 | 0 | 1.0 | 3.0 | 0.00 | 0.39 | 0.39 | 92 | 1007.4 |
| 20260831190645 | 61 | 20 | 1.0 | 3.0 | 0.00 | 0.39 | 0.39 | 92 | 1007.3 |
| 20260831190147 | 61 | 34 | 1.0 | 5.0 | 0.00 | 0.39 | 0.39 | 92 | 1007.2 |
| 20260831185645 | 61 | 0 | 2.0 | 5.0 | 0.00 | 0.39 | 0.39 | 92 | 1007.2 |
| 20260831185147 | 61 | 0 | 1.0 | 2.0 | 0.00 | 0.39 | 0.39 | 92 | 1007.2 |
| 20260831184647 | 62 | 353 | 1.0 | 2.0 | 0.00 | 0.39 | 0.39 | 92 | 1007.1 |
| 20260831184149 | 62 | 86 | 0.0 | 4.0 | 0.00 | 0.39 | 0.39 | 92 | 1007.2 |
| 20260831183641 | 62 | 125 | 0.0 | 4.0 | 0.00 | 0.39 | 0.39 | 92 | 1007.0 |
| 20260831183144 | 62 | 341 | 1.0 | 3.0 | 0.00 | 0.39 | 0.39 | 92 | 1007.0 |
| 20260831182538 | 62 | 35 | 0.0 | 3.0 | 0.00 | 0.39 | 0.39 | 92 | 1006.9 |
| 20260831182043 | 62 | 10 | 1.0 | 5.0 | 0.00 | 0.39 | 0.39 | 92 | 1007.0 |
| 20260831181346 | 62 | 265 | 1.0 | 3.0 | 0.00 | 0.39 | 0.39 | 92 | 1007.0 |
| 20260831180432 | 62 | 21 | 1.0 | 5.0 | 0.00 | 0.39 | 0.39 | 92 | 1007.0 |
| 20260831175929 | 62 | 92 | 2.0 | 5.0 | 0.00 | 0.39 | 0.39 | 92 | 1006.9 |
| 20260831175434 | 62 | 92 | 2.0 | 3.0 | 0.00 | 0.39 | 0.39 | 92 | 1007.0 |
| 20260831175039 | 63 | 1 | 1.0 | 4.0 | 0.00 | 0.39 | 0.39 | 92 | 1006.9 |
| 20260831174515 | 63 | 4 | 1.0 | 7.0 | 0.00 | 0.39 | 0.39 | 92 | 1006.9 |
| 20260831174014 | 63 | 24 | 2.0 | 7.0 | 0.00 | 0.39 | 0.39 | 92 | 1006.8 |
| 20260831173516 | 63 | 265 | 1.0 | 4.0 | 0.00 | 0.39 | 0.39 | 92 | 1006.7 |
| 20260831173019 | 63 | 0 | 2.0 | 4.0 | 0.00 | 0.39 | 0.39 | 92 | 1006.7 |
| 20260831172512 | 63 | 341 | 2.0 | 3.0 | 0.00 | 0.39 | 0.39 | 92 | 1006.7 |
| 20260831172030 | 63 | 80 | 0.0 | 3.0 | 0.00 | 0.39 | 0.39 | 92 | 1006.7 |
| 20260831171355 | 63 | 47 | 0.0 | 4.0 | 0.00 | 0.39 | 0.39 | 92 | 1006.6 |
| 20260831170814 | 63 | 0 | 1.0 | 4.0 | 0.00 | 0.39 | 0.39 | 92 | 1006.7 |
| 20260831170316 | 64 | 99 | 1.0 | 5.0 | 0.00 | 0.39 | 0.39 | 92 | 1006.5 |
| 20260831165814 | 64 | 358 | 1.0 | 5.0 | 0.00 | 0.39 | 0.39 | 92 | 1006.5 |
| 20260831165316 | 64 | 343 | 2.0 | 4.0 | 0.00 | 0.39 | 0.39 | 92 | 1006.4 |
| 20260831164817 | 64 | 345 | 1.0 | 4.0 | 0.00 | 0.39 | 0.39 | 92 | 1006.4 |
| 20260831163814 | 64 | 305 | 1.0 | 3.0 | 0.00 | 0.39 | 0.39 | 92 | 1006.3 |
| 20260831163317 | 64 | 8 | 1.0 | 3.0 | 0.00 | 0.39 | 0.39 | 92 | 1006.2 |
| 20260831162816 | 64 | 28 | 1.0 | 4.0 | 0.00 | 0.39 | 0.39 | 92 | 1006.1 |
| 20260831162319 | 64 | 357 | 0.0 | 4.0 | 0.00 | 0.39 | 0.39 | 92 | 1006.0 |
| 20260831161814 | 64 | 6 | 1.0 | 3.0 | 0.00 | 0.39 | 0.39 | 92 | 1006.1 |
| 20260831161318 | 64 | 18 | 1.0 | 3.0 | 0.00 | 0.39 | 0.39 | 92 | 1006.1 |
| 20260831160813 | 64 | 278 | 1.0 | 5.0 | 0.00 | 0.39 | 0.39 | 92 | 1006.0 |
| 20260831160320 | 64 | 72 | 2.0 | 5.0 | 0.00 | 0.39 | 0.39 | 92 | 1005.9 |
| 20260831155813 | 64 | 23 | 0.0 | 3.0 | 0.00 | 0.39 | 0.39 | 92 | 1005.9 |
| 20260831155319 | 64 | 0 | 1.0 | 5.0 | 0.00 | 0.39 | 0.39 | 92 | 1005.9 |
| 20260831154816 | 64 | 0 | 1.0 | 5.0 | 0.00 | 0.39 | 0.39 | 92 | 1005.8 |
| 20260831154318 | 64 | 0 | 1.0 | 3.0 | 0.00 | 0.39 | 0.39 | 92 | 1005.8 |
| 20260831153319 | 64 | 0 | 1.0 | 3.0 | 0.00 | 0.39 | 0.39 | 93 | 1005.9 |
| 20260831152320 | 64 | 274 | 0.0 | 2.0 | 0.00 | 0.39 | 0.39 | 92 | 1005.9 |
| 20260831151819 | 64 | 17 | 0.0 | 3.0 | 0.00 | 0.39 | 0.39 | 92 | 1005.8 |
| 20260831151321 | 64 | 169 | 1.0 | 3.0 | 0.00 | 0.39 | 0.39 | 92 | 1005.8 |
| 20260831150813 | 64 | 85 | 1.0 | 4.0 | 0.00 | 0.39 | 0.39 | 92 | 1005.8 |
| 20260831150319 | 65 | 227 | 2.0 | 4.0 | 0.00 | 0.39 | 0.39 | 92 | 1005.8 |
| 20260831145814 | 65 | 11 | 0.0 | 3.0 | 0.00 | 0.39 | 0.39 | 92 | 1005.7 |
| 20260831144813 | 65 | 65 | 1.0 | 4.0 | 0.00 | 0.39 | 0.39 | 92 | 1005.8 |
| 20260831144317 | 65 | 336 | 1.0 | 6.0 | 0.00 | 0.39 | 0.39 | 92 | 1005.8 |
| 20260831143813 | 65 | 172 | 2.0 | 6.0 | 0.00 | 0.39 | 0.39 | 92 | 1005.6 |
| 20260831143318 | 65 | 0 | 0.0 | 2.0 | 0.00 | 0.39 | 0.39 | 92 | 1005.6 |
| 20260831142813 | 65 | 140 | 1.0 | 2.0 | 0.00 | 0.39 | 0.39 | 92 | 1005.6 |
| 20260831142317 | 66 | 6 | 1.0 | 2.0 | 0.00 | 0.39 | 0.39 | 92 | 1005.5 |
| 20260831141816 | 66 | 58 | 1.0 | 2.0 | 0.00 | 0.39 | 0.39 | 92 | 1005.5 |
| 20260831141314 | 66 | 20 | 1.0 | 3.0 | 0.00 | 0.39 | 0.39 | 91 | 1005.5 |
| 20260831140816 | 66 | 55 | 1.0 | 4.0 | 0.00 | 0.39 | 0.39 | 92 | 1005.4 |
| 20260831140320 | 66 | 27 | 1.0 | 4.0 | 0.00 | 0.39 | 0.39 | 91 | 1005.5 |
| 20260831135817 | 66 | 94 | 1.0 | 3.0 | 0.00 | 0.39 | 0.39 | 92 | 1005.4 |
| 20260831135317 | 66 | 7 | 1.0 | 3.0 | 0.00 | 0.39 | 0.39 | 92 | 1005.4 |
| 20260831134814 | 66 | 6 | 0.0 | 3.0 | 0.00 | 0.39 | 0.39 | 92 | 1005.3 |
| 20260831134319 | 66 | 52 | 0.0 | 3.0 | 0.00 | 0.39 | 0.39 | 92 | 1005.3 |
| 20260831133813 | 66 | 348 | 1.0 | 3.0 | 0.00 | 0.39 | 0.39 | 92 | 1005.2 |
| 20260831132320 | 66 | 278 | 1.0 | 5.0 | 0.00 | 0.39 | 0.39 | 92 | 1005.3 |
| 20260831131813 | 66 | 307 | 1.0 | 5.0 | 0.00 | 0.39 | 0.39 | 93 | 1005.2 |
| 20260831130815 | 66 | 75 | 0.0 | 4.0 | 0.00 | 0.39 | 0.39 | 92 | 1005.0 |
| 20260831130321 | 66 | 0 | 1.0 | 4.0 | 0.00 | 0.39 | 0.39 | 92 | 1005.1 |
| 20260831125813 | 66 | 4 | 0.0 | 5.0 | 0.00 | 0.39 | 0.39 | 92 | 1005.1 |
| 20260831125314 | 66 | 334 | 2.0 | 5.0 | 0.00 | 0.39 | 0.39 | 92 | 1005.1 |
| 20260831124816 | 66 | 226 | 1.0 | 6.0 | 0.00 | 0.39 | 0.39 | 92 | 1005.0 |
| 20260831123813 | 66 | 323 | 1.0 | 3.0 | 0.00 | 0.39 | 0.39 | 92 | 1005.0 |
| 20260831123315 | 66 | 21 | 1.0 | 4.0 | 0.00 | 0.39 | 0.39 | 93 | 1005.0 |
| 20260831122309 | 66 | 97 | 1.0 | 4.0 | 0.00 | 0.39 | 0.39 | 92 | 1004.9 |
| 20260831121810 | 66 | 353 | 1.0 | 5.0 | 0.00 | 0.39 | 0.39 | 93 | 1004.8 |
| 20260831121308 | 66 | 13 | 2.0 | 5.0 | 0.00 | 0.39 | 0.39 | 93 | 1004.9 |
| 20260831120806 | 66 | 276 | 1.0 | 3.0 | 0.00 | 0.39 | 0.39 | 93 | 1004.8 |
| 20260831120307 | 66 | 312 | 1.0 | 4.0 | 0.00 | 0.39 | 0.39 | 94 | 1004.9 |
| 20260831115805 | 66 | 0 | 2.0 | 4.0 | 0.00 | 0.39 | 0.39 | 94 | 1005.0 |
| 20260831115306 | 66 | 133 | 1.0 | 3.0 | 0.00 | 0.39 | 0.39 | 93 | 1004.9 |
| 20260831114301 | 66 | 103 | 2.0 | 4.0 | 0.00 | 0.39 | 0.39 | 94 | 1004.9 |
| 20260831113807 | 66 | 51 | 0.0 | 3.0 | 0.00 | 0.39 | 0.39 | 94 | 1004.9 |
| 20260831113250 | 66 | 31 | 0.0 | 3.0 | 0.00 | 0.39 | 0.39 | 93 | 1004.9 |
| 20260831112751 | 66 | 1 | 1.0 | 5.0 | 0.00 | 0.39 | 0.39 | 94 | 1004.8 |
| 20260831112251 | 66 | 11 | 2.0 | 5.0 | 0.00 | 0.39 | 0.39 | 94 | 1004.8 |
| 20260831111749 | 66 | 252 | 1.0 | 3.0 | 0.00 | 0.39 | 0.39 | 94 | 1004.8 |
| 20260831111250 | 66 | 47 | 0.0 | 3.0 | 0.00 | 0.39 | 0.39 | 95 | 1004.7 |
| 20260831110734 | 66 | 31 | 1.0 | 3.0 | 0.00 | 0.39 | 0.39 | 95 | 1004.7 |
| 20260831110231 | 66 | 18 | 1.0 | 2.0 | 0.00 | 0.39 | 0.39 | 95 | 1004.6 |
| 20260831105226 | 65 | 4 | 2.0 | 7.0 | 0.00 | 0.39 | 0.39 | 95 | 1004.6 |